Weather reports worldwide

Advertisment
Pershore, United Kingdom (3529): temperature & dewpoint: 17.03.2017 14:00:00 - 23.03.2017 14:00:00 (GMT)Pershore, United Kingdom (3529): temperature -20cm & temperature -100cm: 17.03.2017 14:00:00 - 23.03.2017 14:00:00 (GMT)Pershore, United Kingdom (3529): wind speed & gusts: 17.03.2017 14:00:00 - 23.03.2017 14:00:00 (GMT)Pershore, United Kingdom (3529): wind direction: 17.03.2017 14:00:00 - 23.03.2017 14:00:00 (GMT)Pershore, United Kingdom (3529): reduced air pressure: 17.03.2017 14:00:00 - 23.03.2017 14:00:00 (GMT)Pershore, United Kingdom (3529): visibility: 17.03.2017 14:00:00 - 23.03.2017 14:00:00 (GMT)Pershore, United Kingdom (3529): precipitation: 17.03.2017 14:00:00 - 23.03.2017 14:00:00 (GMT)
Date & Time tt [°C] td [°C] tt -20cm [°C] tt -100cm [°C] ff [km/h] ff [kn] fx [km/h] fx [kn] dd ppp [hPa] vv [km] rr [mm]
23.03.2017 14:00:00 11,5 2,9 - - 22 12 46 25 ENE 1017,8 22 0,0
23.03.2017 13:00:00 11,5 3,8 - - 24 13 - - ENE 1017,5 21 0,0
23.03.2017 12:00:00 10,1 5,1 - - 16 9 - - NE 1017,4 12 0,0
23.03.2017 11:00:00 10,7 5,2 - - 16 9 - - NE 1017,2 16 0,0
23.03.2017 10:00:00 8,3 5,1 - - 15 8 - - NE 1016,9 14 0,0
23.03.2017 09:00:00 6,6 5,2 8,2 8,7 15 8 - - NE 1016,7 9 0,0
23.03.2017 08:00:00 5,4 4,2 - - 11 6 - - NNE 1015,8 10 0,0
23.03.2017 07:00:00 4,5 3,7 - - 13 7 - - N 1015,0 8 0,4
23.03.2017 06:00:00 4,4 3,6 - - 13 7 - - NE 1014,4 5 1,2
23.03.2017 05:00:00 3,5 3,4 - - 8 4 - - NE 1014,0 3,0 0,0
23.03.2017 04:00:00 0,4 0,3 - - 5 3 - - N 1013,6 2,1 0,0
23.03.2017 03:00:00 -0,8 -0,9 - - 4 2 - - NW 1013,1 2,0 0,0
23.03.2017 02:00:00 -1,5 -1,8 - - 4 2 - - N 1012,8 1,8 0,0
23.03.2017 01:00:00 -0,8 -1,0 - - 5 3 - - NNW 1012,6 2,1 0,0
23.03.2017 00:00:00 -0,6 -0,9 - - 5 3 - - NNW 1012,4 0,3 0,0
22.03.2017 23:00:00 0,5 0,3 - - 4 2 - - NE 1011,7 9 0,0
22.03.2017 22:00:00 0,6 0,3 - - 2 1 - - E 1011,0 3,0 0,0
22.03.2017 21:00:00 1,2 0,7 - - 2 1 - - NE 1010,5 5 0,0
22.03.2017 20:00:00 1,7 0,8 - - 2 1 - - N 1009,5 15 0,0
22.03.2017 19:00:00 3,6 2,0 - - 5 3 - - ENE 1008,7 50 0,0
22.03.2017 18:00:00 6,7 3,4 - - 5 3 - - WNW 1007,6 45 0,0
22.03.2017 17:00:00 7,2 3,9 - - 8 4 - - SW 1006,7 50 0,0
22.03.2017 16:00:00 5,4 3,9 - - 8 4 - - WSW 1006,2 19 0,4
22.03.2017 15:00:00 6,8 4,5 - - 11 6 - - SW 1005,2 35 0,2
22.03.2017 14:00:00 7,9 4,9 - - 9 5 - - SSW 1004,4 45 0,0
22.03.2017 13:00:00 7,4 5,4 - - 9 5 - - SW 1004,0 40 0,2
22.03.2017 12:00:00 6,7 4,7 - - 13 7 - - SW 1003,5 14 0,2
22.03.2017 11:00:00 7,5 5,3 - - 11 6 - - SW 1002,7 35 0,2
22.03.2017 10:00:00 6,7 5,3 - - 15 8 - - S 1002,1 21 0,0
22.03.2017 09:00:00 5,8 5,0 8,7 8,7 9 5 - - SSE 1001,6 11 1,0
22.03.2017 08:00:00 5,7 4,3 - - 15 8 - - SE 1001,3 16 1,0
22.03.2017 07:00:00 6,2 3,9 - - 22 12 - - SSE 1001,1 14 0,8
22.03.2017 06:00:00 6,3 3,8 - - 21 11 - - SE 1001,0 11 0,0
22.03.2017 05:00:00 6,5 3,3 - - 22 12 - - SE 1001,3 17 0,0
22.03.2017 04:00:00 6,4 3,3 - - 21 11 - - SE 1001,8 20 0,0
22.03.2017 03:00:00 6,3 3,1 - - 22 12 - - SE 1002,5 23 0,0
22.03.2017 02:00:00 6,7 3,1 - - 26 14 - - SE 1003,1 21 0,0
22.03.2017 01:00:00 6,8 3,2 - - 28 15 - - SSE 1004,1 25 0,0
22.03.2017 00:00:00 6,3 3,2 - - 22 12 - - SE 1004,9 23 0,0
21.03.2017 23:00:00 5,2 3,4 - - 16 9 - - SE 1005,6 24 0,2
21.03.2017 22:00:00 5,9 3,3 - - 18 10 - - S 1006,5 30 0,0
21.03.2017 21:00:00 5,3 3,1 - - 13 7 - - SSE 1007,1 35 0,0
21.03.2017 20:00:00 4,1 2,9 - - 8 4 - - ENE 1007,7 40 0,0
21.03.2017 19:00:00 4,9 3,2 - - 9 5 - - S 1008,2 30 0,2
21.03.2017 18:00:00 5,2 2,8 - - 16 9 50 27 SSW 1008,4 21 0,2
21.03.2017 17:00:00 8,2 0,4 - - 24 13 - - SSW 1008,0 30 0,0
21.03.2017 16:00:00 8,3 0,8 - - 13 7 - - SW 1007,9 30 0,0
21.03.2017 15:00:00 8,7 1,9 - - 18 10 - - SW 1008,7 35 0,0
21.03.2017 14:00:00 7,5 0,4 - - 28 15 50 27 SW 1009,1 50 0,0
21.03.2017 13:00:00 10,2 -0,3 - - 28 15 46 25 WSW 1008,8 30 0,0
21.03.2017 12:00:00 10,3 -1,1 - - 28 15 50 27 SW 1009,0 14 0,0
21.03.2017 11:00:00 9,1 -0,4 - - 26 14 46 25 WSW 1008,9 30 0,0
21.03.2017 10:00:00 8,1 0,9 - - 26 14 46 25 SW 1008,9 30 0,0
21.03.2017 09:00:00 6,2 0,5 9,2 8,7 18 10 - - SW 1009,0 26 0,0
21.03.2017 08:00:00 4,0 -0,1 - - 22 12 - - SW 1008,6 30 0,0
21.03.2017 07:00:00 2,8 -0,9 - - 18 10 - - SW 1008,1 22 0,0
21.03.2017 06:00:00 3,8 -1,2 - - 22 12 - - WSW 1007,7 35 0,0
21.03.2017 05:00:00 3,8 -0,8 - - 16 9 - - W 1007,1 40 0,0
21.03.2017 04:00:00 4,1 -0,4 - - 15 8 - - W 1006,8 40 0,0
21.03.2017 03:00:00 4,9 0,0 - - 21 11 - - W 1006,4 45 0,0
21.03.2017 02:00:00 5,3 0,5 - - 21 11 - - W 1005,7 50 0,0
21.03.2017 01:00:00 5,9 1,5 - - 21 11 - - WSW 1005,1 50 0,0
21.03.2017 00:00:00 6,3 1,8 - - 16 9 - - WSW 1004,8 35 0,0
20.03.2017 23:00:00 6,4 3,4 - - 21 11 - - SW 1004,4 45 0,0
20.03.2017 22:00:00 6,2 3,5 - - 21 11 - - SW 1004,2 25 0,0
20.03.2017 21:00:00 7,2 3,3 - - 21 11 - - WSW 1004,4 40 0,0
20.03.2017 20:00:00 7,6 3,8 - - 21 11 - - WSW 1004,0 40 0,0
20.03.2017 19:00:00 7,7 2,1 - - 9 5 - - WSW 1003,4 35 0,0
20.03.2017 18:00:00 9,6 2,6 - - 13 7 - - WSW 1003,0 50 0,0
20.03.2017 17:00:00 10,9 4,2 - - 18 10 - - WSW 1002,7 50 0,0
20.03.2017 16:00:00 10,4 5,7 - - 15 8 - - W 1002,3 50 0,0
20.03.2017 15:00:00 9,8 6,8 - - 15 8 - - WSW 1002,0 50 0,0
20.03.2017 14:00:00 9,2 7,8 - - 16 9 - - W 1002,1 15 0,8
20.03.2017 13:00:00 8,9 7,5 - - 21 11 - - W 1001,4 13 1,8
20.03.2017 12:00:00 9,7 8,6 - - 16 9 - - W 1000,7 8 2,2
20.03.2017 11:00:00 11,8 10,2 - - 22 12 - - SSW 1000,2 26 0,0
20.03.2017 10:00:00 11,8 10,4 - - 26 14 - - SSW 1000,5 45 0,2
20.03.2017 09:00:00 11,3 10,1 9,4 8,7 24 13 - - SSW 1001,0 14 0,2
20.03.2017 08:00:00 10,7 9,7 - - 22 12 - - SSW 1001,3 13 0,0
20.03.2017 07:00:00 10,3 9,3 - - 16 9 - - SSW 1002,2 27 0,0
20.03.2017 06:00:00 10,5 9,4 - - 18 10 - - SSW 1003,1 35 0,0
20.03.2017 05:00:00 10,5 9,6 - - 18 10 - - SSW 1003,5 30 0,0
20.03.2017 04:00:00 10,3 9,6 - - 18 10 - - SSW 1003,8 11 0,0
20.03.2017 03:00:00 10,4 9,6 - - 21 11 - - SSW 1004,6 11 0,0
20.03.2017 02:00:00 10,7 9,2 - - 18 10 - - SSW 1004,9 26 0,0
20.03.2017 01:00:00 11,0 9,2 - - 13 7 - - SW 1005,9 50 0,0
20.03.2017 00:00:00 10,7 9,1 - - 13 7 - - S 1006,4 45 0,0
19.03.2017 23:00:00 11,0 8,8 - - 9 5 - - SSW 1006,6 50 0,0
19.03.2017 22:00:00 11,2 8,9 - - 15 8 - - SW 1006,9 50 0,0
19.03.2017 21:00:00 11,6 8,8 - - 18 10 - - SW 1006,7 50 0,0
19.03.2017 20:00:00 11,8 9,0 - - 26 14 - - WSW 1006,7 50 0,0
19.03.2017 19:00:00 11,9 9,1 - - 21 11 - - WSW 1006,9 45 0,0
19.03.2017 18:00:00 12,4 9,2 - - 28 15 - - SW 1006,5 45 0,0
19.03.2017 17:00:00 12,7 9,4 - - 22 12 - - SW 1006,6 35 0,0
19.03.2017 16:00:00 13,0 9,4 - - 22 12 - - SW 1006,6 30 0,0
19.03.2017 15:00:00 13,4 9,4 - - 22 12 - - SW 1007,0 28 0,0
19.03.2017 14:00:00 13,5 8,8 - - 24 13 48 26 SW 1006,7 30 0,0
19.03.2017 13:00:00 15,3 7,7 - - 28 15 50 27 W 1006,7 16 0,0
19.03.2017 12:00:00 14,7 8,0 - - 28 15 55 30 W 1007,1 28 0,0
19.03.2017 11:00:00 13,4 9,2 - - 18 10 46 25 WSW 1007,4 40 0,0
19.03.2017 10:00:00 13,3 8,8 - - 29 16 48 26 SW 1007,6 35 0,0
19.03.2017 09:00:00 12,6 8,6 9,2 8,5 28 15 52 28 SW 1007,8 30 0,0
19.03.2017 08:00:00 11,7 8,2 - - 31 17 48 26 WSW 1007,9 35 0,0
19.03.2017 07:00:00 11,3 7,5 - - 22 12 - - WSW 1007,9 28 0,0
19.03.2017 06:00:00 11,3 7,5 - - 26 14 48 26 WSW 1007,6 40 0,0
19.03.2017 05:00:00 11,1 8,2 - - 22 12 - - WSW 1008,0 45 0,0
19.03.2017 04:00:00 10,6 8,5 - - 22 12 - - SW 1009,0 35 0,0
19.03.2017 03:00:00 10,7 8,6 - - 26 14 46 25 SW 1009,0 35 0,0
19.03.2017 02:00:00 10,9 8,8 - - 28 15 46 25 WSW 1009,2 21 0,0
19.03.2017 01:00:00 11,0 9,1 - - 24 13 - - SW 1009,7 23 0,0
19.03.2017 00:00:00 11,0 9,4 - - 15 8 - - SW 1010,9 17 0,0
18.03.2017 23:00:00 11,6 9,6 - - 18 10 - - SW 1011,1 15 0,0
18.03.2017 22:00:00 12,1 9,8 - - 26 14 - - SW 1011,0 24 0,0
18.03.2017 21:00:00 12,4 10,0 - - 21 11 - - SW 1011,3 25 0,0
18.03.2017 20:00:00 13,6 10,1 - - 18 10 - - WSW 1011,2 40 0,0
18.03.2017 19:00:00 13,8 10,0 - - 24 13 - - WSW 1010,4 40 0,0
18.03.2017 18:00:00 13,9 10,0 - - 15 8 - - W 1010,3 45 0,0
18.03.2017 17:00:00 14,3 9,9 - - 16 9 46 25 W 1010,2 40 0,0
18.03.2017 16:00:00 14,7 9,7 - - 18 10 46 25 W 1010,1 40 0,0
18.03.2017 15:00:00 14,4 10,0 - - 21 11 - - W 1010,3 45 0,0
18.03.2017 14:00:00 14,2 10,5 - - 16 9 - - WSW 1010,5 19 0,0
18.03.2017 13:00:00 14,2 9,6 - - 22 12 46 25 W 1011,1 35 0,0
18.03.2017 12:00:00 15,2 10,0 - - 26 14 - - W 1010,4 30 0,0
18.03.2017 11:00:00 14,6 9,9 - - 24 13 - - W 1010,4 40 0,0
18.03.2017 10:00:00 13,8 9,5 - - 21 11 - - W 1010,2 40 0,0
18.03.2017 09:00:00 13,5 9,6 8,7 8,5 21 11 - - W 1010,0 30 0,0
18.03.2017 08:00:00 13,0 9,0 - - 21 11 - - W 1009,7 50 0,0
18.03.2017 07:00:00 12,7 8,7 - - 21 11 - - W 1009,0 50 0,0
18.03.2017 06:00:00 12,7 8,6 - - 21 11 - - W 1008,5 50 0,0
18.03.2017 05:00:00 12,7 8,8 - - 21 11 - - W 1008,0 45 0,0
18.03.2017 04:00:00 12,9 8,9 - - 22 12 - - W 1007,4 50 0,0
18.03.2017 03:00:00 12,9 9,1 - - 22 12 46 25 W 1006,9 50 0,0
18.03.2017 02:00:00 12,7 9,1 - - 21 11 - - W 1007,0 50 0,0
18.03.2017 01:00:00 12,4 8,9 - - 22 12 55 30 W 1007,0 50 0,0
18.03.2017 00:00:00 12,2 8,5 - - 29 16 57 31 WSW 1006,9 50 0,0
17.03.2017 23:00:00 12,1 8,1 - - 28 15 55 30 W 1007,5 50 0,0
17.03.2017 22:00:00 10,5 7,3 - - 29 16 50 27 WSW 1007,9 50 0,0
17.03.2017 21:00:00 10,1 6,9 - - 29 16 - - WSW 1008,7 50 0,0
17.03.2017 20:00:00 9,4 6,3 - - 28 15 46 25 WSW 1009,8 50 0,0
17.03.2017 19:00:00 9,0 6,0 - - 31 17 48 26 SW 1010,3 45 0,0
17.03.2017 18:00:00 9,6 5,3 - - 34 18 52 28 SW 1011,8 35 0,0
17.03.2017 17:00:00 9,6 5,0 - - 29 16 46 25 SW 1013,1 35 0,0
17.03.2017 16:00:00 9,4 5,0 - - 26 14 46 25 SW 1014,3 30 0,0
17.03.2017 15:00:00 9,4 4,7 - - 24 13 - - SW 1015,9 30 0,0
17.03.2017 14:00:00 9,8 4,2 - - 26 14 - - WSW 1016,8 30 0,0

tt = temperature
td = dewpoint
tt -20cm = temperature -20cm
tt -100cm = temperature -100cm
ff = wind speed
fx = gusts
dd = wind direction
ppp = reduced air pressure
vv = visibility
rr = precipitation

Next stations